Location: Kergonan
(48.2337°N, 4.5518°W)
Time: 18:16:37
(UTC+00:00)

USA 116 - Pass Details

Date: 18 January 2020
Orbit: 405 x 834 km, 97.9° (Epoch: 18 November)

Event Time Altitude Azimuth Distance (km) Brightness Sun altitude
Rises 05:50:34 0° 168° (SSE) 3,203 7.9 -21.4°
Reaches altitude 10° 05:52:58 10° 169° (S) 2,238 7.0 -21.0°
Maximum altitude 05:57:54 79° 256° (WSW) 704 4.0 -20.2°
Enters shadow 06:01:02 20° 342° (NNW) 1,504 5.7 -19.7°
